Peotone Weather
Station Historical Data
 
Daily Summary for April 24, 2014 Units:  English    Metric   Both
« Previous Day
Next Day »
Daily Weekly Monthly Yearly Custom
  Current: High: Low: Average:
Temperature: 51.1 °F 51.1 °F 40.3 °F 43.7 °F
Dew Point: 42.0 °F 42.6 °F 35.6 °F 39 °F
Humidity: 71% 87% 71% 83%
Wind Speed: 12.6mph 12.6mph 0.0mph 4.3mph
Wind Gust: 16.1mph 16.1mph - -
WindESE - - East
Pressure: 30.01 in 30.08 in 30.01 in -
Precipitation: 0.01 in      
Historical Graphs
 
 
Tabular Data for April 24, 2014
Time Temperature Dew Point Pressure Wind Wind Speed Wind Gust Humidity Rainfall Rate (Hourly) solar Conditions
00:01 40.4 °F 35.7 °F 30.04 in ESE 3.4 mph 8.1 mph 83% 0.02 in 0.00 W/m2
00:06 40.3 °F 35.6 °F 30.04 in NNE 1.1 mph 8.1 mph 83% 0.02 in 0.00 W/m2
00:16 40.5 °F 35.8 °F 30.04 in East 5.8 mph 9.2 mph 83% 0.02 in 0.00 W/m2
00:21 40.6 °F 36.2 °F 30.05 in SE 2.3 mph 9.2 mph 84% 0.02 in 0.00 W/m2
00:26 40.6 °F 36.2 °F 30.05 in ESE 3.4 mph 4.6 mph 84% 0.02 in 0.00 W/m2
00:31 40.7 °F 36.2 °F 30.06 in East 2.3 mph 6.9 mph 84% 0.01 in 0.00 W/m2
00:36 40.8 °F 36.7 °F 30.06 in East 3.4 mph 3.4 mph 85% 0.01 in 0.00 W/m2
00:41 40.9 °F 36.8 °F 30.06 in Calm   3.4 mph 85% 0.01 in 0.00 W/m2
00:46 40.9 °F 36.8 °F 30.07 in East 2.3 mph 2.3 mph 85% 0.01 in 0.00 W/m2
00:51 41.1 °F 37.2 °F 30.08 in East 2.3 mph 3.4 mph 86% 0.02 in 0.00 W/m2
00:56 41.1 °F 37.2 °F 30.07 in East 1.1 mph 2.3 mph 86% 0.01 in 0.00 W/m2
01:01 41.2 °F 37.6 °F 30.07 in Calm   5.8 mph 87% 0.01 in 0.00 W/m2
01:06 41.1 °F 37.2 °F 30.07 in Calm   1.1 mph 86% 0.01 in 0.00 W/m2
01:11 41.0 °F 36.8 °F 30.07 in Calm     85% 0.01 in 0.00 W/m2
01:16 41.1 °F 37.2 °F 30.08 in Calm   5.8 mph 86% 0.01 in 0.00 W/m2
01:21 41.1 °F 37.5 °F 30.08 in ENE 2.3 mph 5.8 mph 87% 0.01 in 0.00 W/m2
01:26 41.0 °F 37.1 °F 30.07 in Calm   3.4 mph 86% 0.01 in 0.00 W/m2
01:31 41.1 °F 37.5 °F 30.07 in ENE 3.4 mph 4.6 mph 87% 0.01 in 0.00 W/m2
01:36 41.3 °F 37.7 °F 30.08 in NNE 1.1 mph 5.8 mph 87% 0.01 in 0.00 W/m2
01:41 41.3 °F 37.7 °F 30.07 in NE 3.4 mph 6.9 mph 87% 0.01 in 0.00 W/m2
01:51 41.3 °F 37.4 °F 30.07 in NE 8.1 mph 8.1 mph 86% 0.01 in 0.00 W/m2
01:56 41.4 °F 37.5 °F 30.07 in Calm   8.1 mph 86% 0.00 in 0.00 W/m2
02:01 41.5 °F 37.6 °F 30.07 in ENE 4.6 mph 8.1 mph 86% 0.00 in 0.00 W/m2
02:06 41.6 °F 37.4 °F 30.06 in NE 2.3 mph 8.1 mph 85% 0.00 in 0.00 W/m2
02:11 41.7 °F 37.5 °F 30.07 in NE 2.3 mph 8.1 mph 85% 0.00 in 0.00 W/m2
02:16 41.8 °F 37.9 °F 30.08 in NE 3.4 mph 6.9 mph 86% 0.00 in 0.00 W/m2
02:21 41.8 °F 37.9 °F 30.07 in NE 3.4 mph 8.1 mph 86% 0.00 in 0.00 W/m2
02:26 41.8 °F 37.9 °F 30.07 in NE 3.4 mph 8.1 mph 86% 0.00 in 0.00 W/m2
02:31 41.9 °F 38.0 °F 30.07 in ENE 2.3 mph 11.5 mph 86% 0.00 in 0.00 W/m2
02:36 42.0 °F 37.8 °F 30.07 in NE 2.3 mph 10.3 mph 85% 0.00 in 0.00 W/m2
02:41 42.2 °F 38.0 °F 30.07 in ENE 4.6 mph 9.2 mph 85% 0.00 in 0.00 W/m2
02:46 42.3 °F 37.8 °F 30.07 in NE 4.6 mph 9.2 mph 84% 0.00 in 0.00 W/m2
02:56 42.6 °F 38.1 °F 30.07 in NE 4.6 mph 8.1 mph 84% 0.00 in 0.00 W/m2
03:01 42.7 °F 38.2 °F 30.07 in NE 4.6 mph 8.1 mph 84% 0.00 in 0.00 W/m2
03:06 42.7 °F 38.2 °F 30.07 in ENE 2.3 mph 8.1 mph 84% 0.00 in 0.00 W/m2
03:11 42.8 °F 38.3 °F 30.07 in ENE 3.4 mph 8.1 mph 84% 0.00 in 0.00 W/m2
03:16 42.8 °F 38.3 °F 30.07 in East 5.8 mph 9.2 mph 84% 0.00 in 0.00 W/m2
03:21 42.9 °F 38.4 °F 30.07 in NE 2.3 mph 8.1 mph 84% 0.00 in 0.00 W/m2
03:31 42.9 °F 38.7 °F 30.07 in ENE 3.4 mph 8.1 mph 85% 0.00 in 0.00 W/m2
03:36 42.9 °F 38.7 °F 30.07 in East 3.4 mph 8.1 mph 85% 0.00 in 0.00 W/m2
03:41 43.0 °F 38.8 °F 30.06 in ENE 5.8 mph 12.6 mph 85% 0.00 in 0.00 W/m2
03:51 43.3 °F 38.8 °F 30.07 in East 3.4 mph 12.6 mph 84% 0.00 in 0.00 W/m2
03:56 43.4 °F 38.9 °F 30.06 in ENE 3.4 mph 9.2 mph 84% 0.00 in 0.00 W/m2
04:01 43.5 °F 39.0 °F 30.06 in NE 6.9 mph 10.3 mph 84% 0.00 in 0.00 W/m2
04:06 43.7 °F 38.9 °F 30.06 in East 3.4 mph 11.5 mph 83% 0.00 in 0.00 W/m2
04:16 43.9 °F 39.1 °F 30.06 in ENE 5.8 mph 10.3 mph 83% 0.00 in 0.00 W/m2
04:21 44.0 °F 39.2 °F 30.06 in ENE 4.6 mph 11.5 mph 83% 0.00 in 0.00 W/m2
04:26 44.1 °F 39.3 °F 30.06 in ENE 3.4 mph 10.3 mph 83% 0.00 in 0.00 W/m2
04:31 44.2 °F 39.4 °F 30.07 in ENE 5.8 mph 9.2 mph 83% 0.00 in 0.00 W/m2
04:36 44.1 °F 39.6 °F 30.07 in NE 3.4 mph 10.3 mph 84% 0.00 in 0.00 W/m2
04:41 44.1 °F 39.6 °F 30.07 in NE 8.1 mph 10.3 mph 84% 0.00 in 0.00 W/m2
04:46 44.1 °F 39.6 °F 30.07 in NE 6.9 mph 10.3 mph 84% 0.00 in 0.00 W/m2
04:51 44.1 °F 39.6 °F 30.07 in ENE 4.6 mph 8.1 mph 84% 0.00 in 0.00 W/m2
04:56 44.1 °F 39.6 °F 30.07 in ENE 3.4 mph 10.3 mph 84% 0.00 in 0.00 W/m2
05:01 44.2 °F 39.7 °F 30.06 in ENE 9.2 mph 10.3 mph 84% 0.00 in 0.00 W/m2
05:06 44.2 °F 39.7 °F 30.06 in East 2.3 mph 9.2 mph 84% 0.00 in 0.00 W/m2
05:11 44.1 °F 39.9 °F 30.07 in ENE 2.3 mph 8.1 mph 85% 0.00 in 0.00 W/m2
05:16 44.3 °F 39.8 °F 30.06 in East 2.3 mph 9.2 mph 84% 0.00 in 0.00 W/m2
05:21 44.6 °F 39.5 °F 30.06 in ESE 3.4 mph 10.3 mph 82% 0.00 in 0.00 W/m2
05:26 44.8 °F 39.3 °F 30.06 in East 5.8 mph 10.3 mph 81% 0.00 in 0.00 W/m2
05:31 44.8 °F 39.0 °F 30.06 in East 1.1 mph 8.1 mph 80% 0.00 in 0.00 W/m2
05:36 44.8 °F 39.3 °F 30.06 in ESE 1.1 mph 9.2 mph 81% 0.00 in 0.00 W/m2
05:41 44.9 °F 39.4 °F 30.06 in ESE 2.3 mph 8.1 mph 81% 0.00 in 0.00 W/m2
05:46 45.0 °F 39.2 °F 30.06 in East 6.9 mph 9.2 mph 80% 0.00 in 0.00 W/m2
05:51 45.1 °F 39.3 °F 30.06 in SE 2.3 mph 6.9 mph 80% 0.00 in 0.00 W/m2
05:56 45.1 °F 39.6 °F 30.05 in East 8.1 mph 8.1 mph 81% 0.00 in 0.00 W/m2
06:01 45.1 °F 39.9 °F 30.05 in East 8.1 mph 9.2 mph 82% 0.00 in 0.00 W/m2
06:06 44.9 °F 39.8 °F 30.05 in East 6.9 mph 12.6 mph 82% 0.00 in 0.00 W/m2
06:11 44.7 °F 39.9 °F 30.05 in East 9.2 mph 10.3 mph 83% 0.00 in 5.00 W/m2
06:21 44.5 °F 40.0 °F 30.05 in East 1.1 mph 9.2 mph 84% 0.00 in 7.00 W/m2
06:26 44.5 °F 40.0 °F 30.05 in East 3.4 mph 10.3 mph 84% 0.00 in 9.00 W/m2
06:31 44.5 °F 40.0 °F 30.04 in ESE 2.3 mph 9.2 mph 84% 0.00 in 9.00 W/m2
06:36 44.7 °F 40.2 °F 30.04 in East 2.3 mph 8.1 mph 84% 0.00 in 9.00 W/m2
06:41 44.9 °F 40.1 °F 30.04 in East 3.4 mph 9.2 mph 83% 0.00 in 11.00 W/m2
06:46 45.0 °F 40.2 °F 30.04 in ESE 3.4 mph 5.8 mph 83% 0.00 in 12.00 W/m2
06:51 45.1 °F 40.2 °F 30.04 in East 5.8 mph 9.2 mph 83% 0.00 in 18.00 W/m2
06:56 45.2 °F 40.0 °F 30.04 in ESE 3.4 mph 8.1 mph 82% 0.00 in 26.00 W/m2
07:01 45.4 °F 40.2 °F 30.04 in East 5.8 mph 8.1 mph 82% 0.00 in 42.00 W/m2
07:06 45.6 °F 40.4 °F 30.04 in East 5.8 mph 9.2 mph 82% 0.00 in 49.00 W/m2
07:11 45.8 °F 40.6 °F 30.03 in ESE 8.1 mph 10.3 mph 82% 0.00 in 51.00 W/m2
07:21 46.3 °F 40.8 °F 30.03 in ESE 8.1 mph 11.5 mph 81% 0.00 in 63.00 W/m2
07:26 46.5 °F 40.7 °F 30.02 in ESE 2.3 mph 12.6 mph 80% 0.00 in 56.00 W/m2
07:31 46.7 °F 40.9 °F 30.02 in SE 6.9 mph 12.6 mph 80% 0.00 in 65.00 W/m2
07:36 46.7 °F 40.9 °F 30.02 in SE 6.9 mph 13.8 mph 80% 0.00 in 83.00 W/m2
07:41 46.8 °F 41.0 °F 30.02 in ESE 4.6 mph 11.5 mph 80% 0.00 in 93.00 W/m2
07:46 46.9 °F 41.1 °F 30.02 in SSE 4.6 mph 11.5 mph 80% 0.00 in 113.00 W/m2
07:51 47.2 °F 41.4 °F 30.02 in ESE 5.8 mph 14.9 mph 80% 0.00 in 113.00 W/m2
07:56 47.6 °F 41.8 °F 30.02 in SE 6.9 mph 14.9 mph 80% 0.00 in 132.00 W/m2
08:01 47.9 °F 42.0 °F 30.02 in ESE 10.3 mph 13.8 mph 80% 0.00 in 151.00 W/m2
08:06 48.4 °F 42.2 °F 30.02 in East 9.2 mph 12.6 mph 79% 0.00 in 155.00 W/m2
08:11 48.9 °F 42.3 °F 30.02 in SE 9.2 mph 16.1 mph 78% 0.00 in 139.00 W/m2
08:16 49.4 °F 42.2 °F 30.02 in ESE 11.5 mph 13.8 mph 76% 0.00 in 174.00 W/m2
08:26 50.6 °F 42.6 °F 30.02 in SE 11.5 mph 16.1 mph 74% 0.00 in 181.00 W/m2
08:31 51.1 °F 42.0 °F 30.01 in ESE 12.6 mph 16.1 mph 71% 0.00 in 169.00 W/m2
Peotone Weather Data
Compliments of Weather Underground